Location: Biharia
(46.4333°N, 22.8000°E)
Time: 00:11:08
(UTC+00:00)

COSMO-SKYMED 1 - Pass Details

Date: 16 October 2021
Orbit: 621 x 623 km, 97.9° (Epoch: 26 November)

Event Time Altitude Azimuth Distance (km) Brightness Sun altitude
Rises 17:01:00 0° 9° (N) 2,916 5.9 -14.7°
Reaches altitude 10° 17:03:14 10° 5° (N) 2,005 5.1 -15.0°
Maximum altitude 17:07:30 57° 288° (WNW) 736 3.2 -15.8°
Drops below altitude 10° 17:11:45 10° 210° (SSW) 1,988 5.5 -16.5°
Sets 17:13:57 0° 206° (SSW) 2,889 6.3 -16.9°
